Starlink 31500

operational
NORAD ID: 59305 Int'l Des: 2024-056 Owner: SPXS Country: US Constellation: starlink
LEOCIRCULAR

About Starlink 31500

Description loading...

Live Position

Loading 3D Globe...

Upcoming Passes

Altitude History

Altitude vs Time

uPlot chart will show altitude changes over time

Two-Line Element Set

1 59305U 24056K 25304.81315392 -.00003261 00000-0 -10904-3 0 9996
2 59305 43.0002 238.6002 0000792 80.1212 279.9729 15.27580292 91440
Epoch: Oct 31, 2025 • Age: 20 hours

Current Status

Altitude 488.8 km
Velocity 7.62 km/s
Sub-Earth Point -23.00°S, 70.73°W
Launch Date Mar 24, 2024
Age 1.6 years
Type internet

Technical Details

Classification Payload
Mass 730.00 kg
Dry Mass 700.00 kg
Total Mass 730.00 kg
Length 0.30 m
Diameter 4.10 m
Span 29.00 m
Shape Box + pan
Manufacturer SPXS
Bus Type Starlink V2M
Phase Status In Orbit
Owner/State SPXS/US

Large Constellations

Loading constellations...